Time,TemperatureF,DewpointF,PressureIn,WindDirection,WindDirectionDegrees,WindSpeedMPH,WindSpeedGustMPH,Humidity,HourlyPrecipIn,Conditions,Clouds,dailyrainin,SoftwareType,DateUTC
2013-04-04 10:43:00,54.0,53.4,29.68,SSW,202,0.0,0.0,98,0.00,,---,0.00,VWS V14.01,2013-04-04 17:43:00,
2013-04-04 10:44:00,54.0,53.4,29.68,South,180,0.0,0.0,98,0.00,,---,0.00,VWS V14.01,2013-04-04 17:44:00,
2013-04-04 10:50:00,54.1,53.6,29.68,SSW,202,4.3,5.8,98,0.00,,---,0.00,VWS V14.01,2013-04-04 17:50:00,
2013-04-04 10:55:00,54.5,54.0,29.68,South,180,7.2,7.4,98,0.00,,---,0.00,VWS V14.01,2013-04-04 17:55:00,
2013-04-04 11:00:00,54.9,54.3,29.68,WSW,248,2.2,2.2,98,0.00,,---,0.00,VWS V14.01,2013-04-04 18:00:00,
2013-04-04 11:05:00,54.9,54.3,29.71,SSE,158,2.5,6.0,98,0.00,,---,0.00,VWS V14.01,2013-04-04 18:05:00,
2013-04-04 11:11:00,55.0,54.5,29.71,SSW,202,6.0,6.0,98,0.00,,---,0.00,VWS V14.01,2013-04-04 18:11:00,
2013-04-04 11:16:00,55.0,54.5,29.71,SSW,202,2.5,6.0,98,0.00,,---,0.00,VWS V14.01,2013-04-04 18:16:00,
2013-04-04 11:22:00,54.9,54.3,29.71,WSW,248,2.2,3.1,98,0.00,,---,0.00,VWS V14.01,2013-04-04 18:22:00,
2013-04-04 11:27:00,54.7,54.1,29.71,SSW,202,4.0,5.4,98,0.00,,---,0.00,VWS V14.01,2013-04-04 18:27:00,
2013-04-04 11:32:00,54.7,54.1,29.71,SW,225,1.6,7.2,98,0.00,,---,0.00,VWS V14.01,2013-04-04 18:32:00,
2013-04-04 11:37:00,54.7,54.1,29.71,SSW,202,3.4,7.2,98,0.00,,---,0.00,VWS V14.01,2013-04-04 18:37:00,
2013-04-04 11:43:00,54.7,54.1,29.71,WSW,248,4.3,4.3,98,0.00,,---,0.00,VWS V14.01,2013-04-04 18:43:00,
2013-04-04 11:48:00,54.5,54.0,29.71,SW,225,2.2,6.5,98,0.00,,---,0.00,VWS V14.01,2013-04-04 18:48:00,
2013-04-04 11:53:00,54.5,54.0,29.74,SSW,202,2.7,2.7,98,0.00,,---,0.00,VWS V14.01,2013-04-04 18:53:00,
2013-04-04 11:58:00,54.5,54.0,29.74,WSW,248,4.0,4.0,98,0.00,,---,0.00,VWS V14.01,2013-04-04 18:58:00,
2013-04-04 12:04:00,54.7,54.1,29.74,SSW,202,2.2,6.0,98,0.00,,---,0.00,VWS V14.01,2013-04-04 19:04:00,
2013-04-04 12:09:00,54.7,54.1,29.74,WSW,248,3.1,6.0,98,0.00,,---,0.00,VWS V14.01,2013-04-04 19:09:00,
2013-04-04 12:14:00,54.7,54.1,29.74,SSW,202,4.0,4.0,98,0.00,,---,0.00,VWS V14.01,2013-04-04 19:14:00,
2013-04-04 12:19:00,54.5,54.0,29.76,SSW,202,3.6,4.0,98,0.00,,---,0.00,VWS V14.01,2013-04-04 19:19:00,
2013-04-04 12:25:00,54.7,54.1,29.76,SSW,202,2.0,4.9,98,0.00,,---,0.00,VWS V14.01,2013-04-04 19:25:00,
2013-04-04 12:30:00,54.7,54.1,29.76,SE,135,1.3,4.9,98,0.00,,---,0.00,VWS V14.01,2013-04-04 19:30:00,
2013-04-04 12:35:00,54.9,54.3,29.76,SSW,202,2.0,3.6,98,0.00,,---,0.00,VWS V14.01,2013-04-04 19:35:00,
2013-04-04 12:41:00,54.7,54.1,29.76,SSE,158,2.5,2.5,98,0.00,,---,0.00,VWS V14.01,2013-04-04 19:41:00,
2013-04-04 12:46:00,55.0,54.5,29.76,SSE,158,1.1,4.9,98,0.00,,---,0.00,VWS V14.01,2013-04-04 19:46:00,
2013-04-04 12:51:00,55.2,54.7,29.76,South,180,2.0,2.5,98,0.00,,---,0.00,VWS V14.01,2013-04-04 19:51:00,
2013-04-04 12:57:00,55.4,54.8,29.76,SSW,202,1.1,4.0,98,0.00,,---,0.00,VWS V14.01,2013-04-04 19:57:00,
2013-04-04 13:02:00,55.4,54.8,29.76,South,180,2.7,2.7,98,0.00,,---,0.00,VWS V14.01,2013-04-04 20:02:00,
2013-04-04 13:07:00,55.4,54.8,29.76,SW,225,2.5,5.4,98,0.00,,---,0.00,VWS V14.01,2013-04-04 20:07:00,
2013-04-04 13:13:00,55.8,55.2,29.76,SSW,202,5.6,5.6,98,0.00,,---,0.00,VWS V14.01,2013-04-04 20:13:00,
2013-04-04 13:18:00,55.8,55.2,29.76,SSW,202,2.2,5.6,98,0.00,,---,0.00,VWS V14.01,2013-04-04 20:18:00,
2013-04-04 13:23:00,55.8,55.2,29.76,SSW,202,2.7,6.9,98,0.00,,---,0.00,VWS V14.01,2013-04-04 20:23:00,
2013-04-04 13:29:00,55.4,54.8,29.76,WSW,248,3.4,6.9,98,0.00,,---,0.00,VWS V14.01,2013-04-04 20:29:00,
2013-04-04 13:34:00,54.9,54.3,29.76,SW,225,3.4,3.8,98,0.00,,---,0.00,VWS V14.01,2013-04-04 20:34:00,
2013-04-04 13:39:00,54.5,54.0,29.76,SSW,202,1.6,7.8,98,0.00,,---,0.00,VWS V14.01,2013-04-04 20:39:00,
2013-04-04 13:45:00,54.5,54.0,29.76,SSW,202,3.6,4.7,98,0.00,,---,0.00,VWS V14.01,2013-04-04 20:45:00,
2013-04-04 13:50:00,54.5,54.0,29.79,SSW,202,2.7,4.7,98,0.00,,---,0.00,VWS V14.01,2013-04-04 20:50:00,
2013-04-04 13:55:00,54.3,53.8,29.79,SSW,202,6.0,6.0,98,0.00,,---,0.00,VWS V14.01,2013-04-04 20:55:00,
2013-04-04 14:00:00,54.7,54.1,29.79,SSW,202,1.6,1.6,98,0.00,,---,0.00,VWS V14.01,2013-04-04 21:00:00,
2013-04-04 14:06:00,54.9,54.3,29.79,SW,225,1.3,3.4,98,0.00,,---,0.00,VWS V14.01,2013-04-04 21:06:00,
2013-04-04 14:11:00,55.2,54.7,29.79,WSW,248,2.9,2.9,98,0.00,,---,0.00,VWS V14.01,2013-04-04 21:11:00,
2013-04-04 14:16:00,55.0,54.5,29.79,SSW,202,4.9,7.2,98,0.00,,---,0.00,VWS V14.01,2013-04-04 21:16:00,
2013-04-04 14:22:00,54.9,54.3,29.79,SW,225,4.3,4.3,98,0.00,,---,0.00,VWS V14.01,2013-04-04 21:22:00,
2013-04-04 14:27:00,54.9,54.3,29.79,SSW,202,1.6,4.3,98,0.00,,---,0.00,VWS V14.01,2013-04-04 21:27:00,
2013-04-04 14:32:00,54.9,54.3,29.79,SSW,202,5.6,5.6,98,0.00,,---,0.00,VWS V14.01,2013-04-04 21:32:00,
2013-04-04 14:37:00,55.2,54.7,29.76,WSW,248,5.4,5.6,98,0.00,,---,0.00,VWS V14.01,2013-04-04 21:37:00,
2013-04-04 14:43:00,55.6,55.0,29.76,SSW,202,4.3,4.3,98,0.00,,---,0.00,VWS V14.01,2013-04-04 21:43:00,
2013-04-04 14:48:00,55.8,55.2,29.79,SSW,202,2.9,4.3,98,0.00,,---,0.00,VWS V14.01,2013-04-04 21:48:00,
2013-04-04 14:53:00,55.8,55.2,29.79,SSW,202,3.1,3.8,98,0.00,,---,0.00,VWS V14.01,2013-04-04 21:53:00,
2013-04-04 14:58:00,55.2,54.7,29.79,SSW,202,4.9,4.9,98,0.00,,---,0.00,VWS V14.01,2013-04-04 21:58:00,
2013-04-04 15:04:00,55.4,54.8,29.79,SSW,202,5.4,5.6,98,0.00,,---,0.00,VWS V14.01,2013-04-04 22:04:00,
2013-04-04 15:10:00,55.2,54.7,29.79,SW,225,3.1,5.6,98,0.00,,---,0.00,VWS V14.01,2013-04-04 22:10:00,
2013-04-04 15:15:00,55.2,54.7,29.79,SW,225,2.9,4.0,98,0.00,,---,0.00,VWS V14.01,2013-04-04 22:15:00,
2013-04-04 15:20:00,55.0,54.5,29.79,WSW,248,3.4,4.0,98,0.00,,---,0.00,VWS V14.01,2013-04-04 22:20:00,
2013-04-04 15:25:00,54.7,54.1,29.79,SSW,202,2.0,4.0,98,0.00,,---,0.00,VWS V14.01,2013-04-04 22:25:00,
2013-04-04 15:30:00,54.5,54.0,29.79,SSW,202,5.4,6.0,98,0.00,,---,0.00,VWS V14.01,2013-04-04 22:30:00,
2013-04-04 15:35:00,54.3,53.8,29.79,SSW,202,2.7,5.4,98,0.00,,---,0.00,VWS V14.01,2013-04-04 22:35:00,
2013-04-04 15:40:00,54.3,53.8,29.79,SW,225,5.4,5.8,98,0.00,,---,0.00,VWS V14.01,2013-04-04 22:40:00,
2013-04-04 15:45:00,54.3,53.8,29.79,South,180,3.1,5.4,98,0.00,,---,0.00,VWS V14.01,2013-04-04 22:45:00,
2013-04-04 15:51:00,54.0,53.4,29.79,SSW,202,2.9,3.8,98,0.00,,---,0.00,VWS V14.01,2013-04-04 22:51:00,
2013-04-04 15:57:00,54.1,53.6,29.79,WSW,248,1.6,3.8,98,0.00,,---,0.00,VWS V14.01,2013-04-04 22:57:00,
2013-04-04 16:02:00,54.0,53.4,29.79,SSW,202,2.5,4.7,98,0.00,,---,0.00,VWS V14.01,2013-04-04 23:02:00,
2013-04-04 16:07:00,54.0,53.4,29.79,SSW,202,3.1,5.8,98,0.00,,---,0.00,VWS V14.01,2013-04-04 23:07:00,
2013-04-04 16:12:00,53.8,53.2,29.79,WSW,248,2.7,2.9,98,0.00,,---,0.00,VWS V14.01,2013-04-04 23:12:00,
2013-04-04 16:17:00,53.4,52.9,29.79,SSW,202,2.9,3.8,98,0.00,,---,0.00,VWS V14.01,2013-04-04 23:17:00,
2013-04-04 16:23:00,53.4,52.9,29.79,WSW,248,5.4,5.4,98,0.00,,---,0.00,VWS V14.01,2013-04-04 23:23:00,
2013-04-04 16:28:00,53.4,52.9,29.79,SSW,202,2.9,5.4,98,0.00,,---,0.00,VWS V14.01,2013-04-04 23:28:00,
2013-04-04 16:33:00,53.2,52.7,29.79,SSW,202,2.9,3.6,98,0.00,,---,0.00,VWS V14.01,2013-04-04 23:33:00,
2013-04-04 16:39:00,53.4,52.9,29.79,SSW,202,2.9,3.6,98,0.00,,---,0.00,VWS V14.01,2013-04-04 23:39:00,
2013-04-04 16:44:00,53.2,52.7,29.79,SSW,202,4.3,4.3,98,0.00,,---,0.00,VWS V14.01,2013-04-04 23:44:00,
2013-04-04 16:49:00,53.4,52.9,29.79,SW,225,2.5,4.9,98,0.00,,---,0.00,VWS V14.01,2013-04-04 23:49:00,
2013-04-04 16:54:00,53.4,52.9,29.79,South,180,3.1,6.0,98,0.00,,---,0.00,VWS V14.01,2013-04-04 23:54:00,
2013-04-04 17:00:00,53.4,52.9,29.79,South,180,2.5,6.0,98,0.00,,---,0.00,VWS V14.01,2013-04-05 00:00:00,
2013-04-04 17:05:00,53.4,52.9,29.79,SSW,202,2.9,5.8,98,0.00,,---,0.00,VWS V14.01,2013-04-05 00:05:00,
2013-04-04 17:10:00,53.4,52.9,29.79,SSE,158,1.3,5.8,98,0.00,,---,0.00,VWS V14.01,2013-04-05 00:10:00,
2013-04-04 17:15:00,53.2,52.7,29.79,SW,225,3.8,4.7,98,0.00,,---,0.00,VWS V14.01,2013-04-05 00:15:00,
2013-04-04 17:21:00,53.2,52.7,29.79,SW,225,1.1,2.9,98,0.00,,---,0.00,VWS V14.01,2013-04-05 00:21:00,
2013-04-04 17:26:00,53.2,52.7,29.79,SSW,202,2.5,3.4,98,0.00,,---,0.00,VWS V14.01,2013-04-05 00:26:00,
2013-04-04 17:31:00,53.1,52.5,29.79,SSE,158,3.1,3.1,98,0.00,,---,0.00,VWS V14.01,2013-04-05 00:31:00,
2013-04-04 17:37:00,53.1,52.5,29.79,SW,225,3.1,3.6,98,0.00,,---,0.00,VWS V14.01,2013-04-05 00:37:00,
2013-04-04 17:42:00,53.1,52.5,29.79,SSW,202,2.0,3.4,98,0.00,,---,0.00,VWS V14.01,2013-04-05 00:42:00,
2013-04-04 17:48:00,52.9,52.3,29.79,SSW,202,2.9,6.5,98,0.00,,---,0.00,VWS V14.01,2013-04-05 00:48:00,
2013-04-04 17:53:00,52.9,52.3,29.79,WSW,248,2.5,2.5,98,0.00,,---,0.00,VWS V14.01,2013-04-05 00:53:00,
2013-04-04 17:58:00,52.9,52.3,29.79,SSW,202,4.0,4.0,98,0.00,,---,0.00,VWS V14.01,2013-04-05 00:58:00,
2013-04-04 18:03:00,52.7,52.2,29.79,SSE,158,2.0,4.7,98,0.00,,---,0.00,VWS V14.01,2013-04-05 01:03:00,
2013-04-04 18:09:00,52.7,52.2,29.79,South,180,2.5,5.6,98,0.00,,---,0.00,VWS V14.01,2013-04-05 01:09:00,
2013-04-04 18:15:00,52.5,52.0,29.79,WSW,248,4.3,4.3,98,0.00,,---,0.00,VWS V14.01,2013-04-05 01:15:00,
2013-04-04 18:20:00,52.5,52.0,29.79,WSW,248,2.7,4.3,98,0.00,,---,0.00,VWS V14.01,2013-04-05 01:20:00,
2013-04-04 18:25:00,52.5,52.0,29.79,SSW,202,2.0,3.4,98,0.00,,---,0.00,VWS V14.01,2013-04-05 01:25:00,
2013-04-04 18:30:00,52.3,51.8,29.79,WNW,292,2.7,3.4,98,0.00,,---,0.00,VWS V14.01,2013-04-05 01:30:00,
2013-04-04 18:35:00,52.3,51.8,29.79,SSW,202,3.4,7.2,98,0.00,,---,0.00,VWS V14.01,2013-04-05 01:35:00,
2013-04-04 18:40:00,52.2,51.6,29.79,SSE,158,2.7,3.6,98,0.00,,---,0.00,VWS V14.01,2013-04-05 01:40:00,
2013-04-04 18:45:00,52.0,51.4,29.79,South,180,3.6,4.7,98,0.00,,---,0.00,VWS V14.01,2013-04-05 01:45:00,
2013-04-04 18:50:00,52.0,51.4,29.82,South,180,3.8,5.6,98,0.00,,---,0.00,VWS V14.01,2013-04-05 01:50:00,
2013-04-04 18:55:00,51.8,51.3,29.82,SW,225,2.2,5.6,98,0.00,,---,0.00,VWS V14.01,2013-04-05 01:55:00,
2013-04-04 19:01:00,51.8,51.3,29.82,SSW,202,2.2,3.4,98,0.00,,---,0.00,VWS V14.01,2013-04-05 02:01:00,
2013-04-04 19:06:00,51.6,51.1,29.82,SE,135,6.9,6.9,98,0.00,,---,0.00,VWS V14.01,2013-04-05 02:06:00,
2013-04-04 19:12:00,51.6,51.1,29.82,South,180,0.0,1.1,98,0.00,,---,0.00,VWS V14.01,2013-04-05 02:12:00,
2013-04-04 19:17:00,51.6,51.1,29.82,SE,135,1.6,3.1,98,0.00,,---,0.00,VWS V14.01,2013-04-05 02:17:00,
2013-04-04 19:22:00,51.6,51.1,29.82,SSE,158,1.6,2.5,98,0.00,,---,0.00,VWS V14.01,2013-04-05 02:22:00,
2013-04-04 19:27:00,51.6,51.1,29.82,SSW,202,1.3,2.5,98,0.00,,---,0.00,VWS V14.01,2013-04-05 02:27:00,
2013-04-04 19:32:00,51.6,51.1,29.82,SSW,202,2.2,2.2,98,0.00,,---,0.00,VWS V14.01,2013-04-05 02:32:00,
2013-04-04 19:38:00,51.6,51.1,29.82,SSW,202,0.0,2.5,98,0.00,,---,0.00,VWS V14.01,2013-04-05 02:38:00,
2013-04-04 19:43:00,51.6,51.1,29.82,SSE,158,2.9,2.9,98,0.00,,---,0.00,VWS V14.01,2013-04-05 02:43:00,
2013-04-04 19:48:00,51.6,51.1,29.82,SSW,202,2.0,2.9,98,0.00,,---,0.00,VWS V14.01,2013-04-05 02:48:00,
2013-04-04 19:54:00,51.8,51.3,29.82,SSW,202,3.4,3.4,98,0.00,,---,0.00,VWS V14.01,2013-04-05 02:54:00,
2013-04-04 19:59:00,51.8,51.3,29.82,SSW,202,1.3,6.0,98,0.00,,---,0.00,VWS V14.01,2013-04-05 02:59:00,
2013-04-04 20:04:00,51.8,51.3,29.82,South,180,1.6,3.1,98,0.00,,---,0.00,VWS V14.01,2013-04-05 03:04:00,
2013-04-04 20:10:00,51.8,51.3,29.82,SSW,202,1.3,3.6,98,0.00,,---,0.00,VWS V14.01,2013-04-05 03:10:00,
2013-04-04 20:15:00,51.8,51.3,29.82,SSE,158,0.9,2.9,98,0.00,,---,0.00,VWS V14.01,2013-04-05 03:15:00,
2013-04-04 20:20:00,52.0,51.4,29.82,SSW,202,2.5,4.0,98,0.00,,---,0.00,VWS V14.01,2013-04-05 03:20:00,
2013-04-04 20:25:00,52.0,51.4,29.82,SSW,202,1.1,4.7,98,0.00,,---,0.00,VWS V14.01,2013-04-05 03:25:00,
2013-04-04 20:30:00,52.2,51.6,29.82,SSW,202,1.6,1.6,98,0.00,,---,0.00,VWS V14.01,2013-04-05 03:30:00,
2013-04-04 20:36:00,52.2,51.6,29.82,SSW,202,0.9,3.4,98,0.00,,---,0.00,VWS V14.01,2013-04-05 03:36:00,
2013-04-04 20:41:00,52.3,51.8,29.82,South,180,1.1,1.1,98,0.00,,---,0.00,VWS V14.01,2013-04-05 03:41:00,
2013-04-04 20:46:00,52.3,51.8,29.82,South,180,1.6,2.9,98,0.00,,---,0.00,VWS V14.01,2013-04-05 03:46:00,
2013-04-04 20:52:00,52.3,51.8,29.82,SSE,158,2.9,2.9,98,0.00,,---,0.00,VWS V14.01,2013-04-05 03:52:00,
2013-04-04 20:57:00,52.3,51.8,29.82,SSW,202,2.9,3.6,98,0.00,,---,0.00,VWS V14.01,2013-04-05 03:57:00,
2013-04-04 21:00:00,52.3,51.8,29.82,SW,225,2.7,3.6,98,0.00,,---,0.00,VWS V14.01,2013-04-05 04:00:00,
2013-04-04 21:02:00,52.3,51.8,29.82,SSW,202,0.9,2.7,98,0.00,,---,0.00,VWS V14.01,2013-04-05 04:02:00,
2013-04-04 21:07:00,52.5,52.0,29.82,SSW,202,2.5,7.8,98,0.00,,---,0.00,VWS V14.01,2013-04-05 04:07:00,
2013-04-04 21:08:00,52.5,52.0,29.82,SSW,202,4.7,7.8,98,0.00,,---,0.00,VWS V14.01,2013-04-05 04:08:00,
2013-04-04 21:13:00,52.3,51.8,29.82,SSW,202,4.9,4.9,98,0.00,,---,0.00,VWS V14.01,2013-04-05 04:13:00,
2013-04-04 21:18:00,52.3,51.8,29.82,SSW,202,2.5,4.9,98,0.00,,---,0.00,VWS V14.01,2013-04-05 04:18:00,
2013-04-04 21:23:00,52.3,51.8,29.82,SSW,202,2.2,6.9,98,0.00,,---,0.00,VWS V14.01,2013-04-05 04:23:00,
2013-04-04 21:29:00,52.3,51.8,29.82,WSW,248,1.6,6.9,98,0.00,,---,0.00,VWS V14.01,2013-04-05 04:29:00,
2013-04-04 21:34:00,52.3,51.8,29.85,WSW,248,2.7,2.9,98,0.00,,---,0.00,VWS V14.01,2013-04-05 04:34:00,
2013-04-04 21:39:00,52.3,51.8,29.85,SSW,202,1.3,4.3,98,0.00,,---,0.00,VWS V14.01,2013-04-05 04:39:00,
2013-04-04 21:44:00,52.3,51.8,29.85,SSW,202,3.8,3.8,98,0.00,,---,0.00,VWS V14.01,2013-04-05 04:44:00,
2013-04-04 21:50:00,52.3,51.8,29.85,SSW,202,3.1,3.8,98,0.00,,---,0.00,VWS V14.01,2013-04-05 04:50:00,
2013-04-04 21:55:00,52.3,51.8,29.85,SSW,202,2.0,3.6,98,0.00,,---,0.00,VWS V14.01,2013-04-05 04:55:00,
2013-04-04 22:00:00,52.3,51.8,29.85,SW,225,2.7,3.6,98,0.00,,---,0.00,VWS V14.01,2013-04-05 05:00:00,
2013-04-04 22:05:00,52.3,51.8,29.85,SSW,202,1.1,4.3,98,0.00,,---,0.00,VWS V14.01,2013-04-05 05:05:00,
2013-04-04 22:10:00,52.3,51.8,29.85,SW,225,1.3,4.0,98,0.00,,---,0.00,VWS V14.01,2013-04-05 05:10:00,
2013-04-04 22:15:00,52.3,51.8,29.85,SW,225,2.0,4.0,98,0.00,,---,0.00,VWS V14.01,2013-04-05 05:15:00,
2013-04-04 22:21:00,52.3,51.8,29.85,SSW,202,3.1,3.1,98,0.00,,---,0.00,VWS V14.01,2013-04-05 05:21:00,
2013-04-04 22:26:00,52.3,51.8,29.85,SW,225,3.1,4.0,98,0.00,,---,0.00,VWS V14.01,2013-04-05 05:26:00,
2013-04-04 22:32:00,52.3,51.8,29.85,WSW,248,2.7,2.7,98,0.00,,---,0.00,VWS V14.01,2013-04-05 05:32:00,
2013-04-04 22:37:00,52.3,51.8,29.88,SW,225,2.0,3.4,98,0.00,,---,0.00,VWS V14.01,2013-04-05 05:37:00,
2013-04-04 22:42:00,52.2,51.6,29.88,SSW,202,1.1,4.3,98,0.00,,---,0.00,VWS V14.01,2013-04-05 05:42:00,
2013-04-04 22:47:00,52.2,51.6,29.88,SSW,202,1.1,4.3,98,0.00,,---,0.00,VWS V14.01,2013-04-05 05:47:00,
2013-04-04 22:52:00,52.2,51.6,29.88,SSW,202,2.2,2.5,98,0.00,,---,0.00,VWS V14.01,2013-04-05 05:52:00,
2013-04-04 22:57:00,52.2,51.6,29.88,SSW,202,0.9,3.4,98,0.00,,---,0.00,VWS V14.01,2013-04-05 05:57:00,
2013-04-04 23:03:00,52.2,51.6,29.88,SSW,202,5.6,5.6,98,0.00,,---,0.00,VWS V14.01,2013-04-05 06:03:00,
2013-04-04 23:08:00,52.2,51.6,29.88,SSW,202,2.0,5.6,98,0.00,,---,0.00,VWS V14.01,2013-04-05 06:08:00,
2013-04-04 23:13:00,52.2,51.6,29.88,SSW,202,2.7,2.9,98,0.00,,---,0.00,VWS V14.01,2013-04-05 06:13:00,
2013-04-04 23:19:00,52.2,51.6,29.88,SSW,202,1.1,2.9,98,0.00,,---,0.00,VWS V14.01,2013-04-05 06:19:00,
2013-04-04 23:24:00,52.2,51.6,29.88,SW,225,1.3,3.4,98,0.00,,---,0.00,VWS V14.01,2013-04-05 06:24:00,
2013-04-04 23:30:00,52.2,51.6,29.88,South,180,1.3,3.4,98,0.00,,---,0.00,VWS V14.01,2013-04-05 06:30:00,
2013-04-04 23:35:00,52.2,51.6,29.88,SSW,202,1.6,4.7,98,0.00,,---,0.00,VWS V14.01,2013-04-05 06:35:00,
2013-04-04 23:40:00,52.2,51.6,29.88,SSW,202,2.0,4.7,98,0.00,,---,0.00,VWS V14.01,2013-04-05 06:40:00,
2013-04-04 23:45:00,52.0,51.4,29.88,SSW,202,3.8,3.8,98,0.00,,---,0.00,VWS V14.01,2013-04-05 06:45:00,
2013-04-04 23:50:00,52.2,51.6,29.88,SE,135,2.5,2.5,98,0.00,,---,0.00,VWS V14.01,2013-04-05 06:50:00,
2013-04-04 23:56:00,52.0,51.4,29.88,SSW,202,2.9,6.0,98,0.00,,---,0.00,VWS V14.01,2013-04-05 06:56:00,